Weather History for Georgetown, SC

Change the Weather History Date:

Wednesday, April 11, 2012

  Actual Average Record
Temperature  
Mean Temperature 57 °F -  
Max Temperature 68 °F 72 °F 84 °F (2011)
Min Temperature 46 °F 49 °F 46 °F (2012)
Degree Days  
Heating Degree Days 8    
Growing Degree Days 7 (Base 50)    
Moisture  
Dew Point 32 °F    
Average Humidity 38    
Maximum Humidity 62    
Minimum Humidity 16    
Precipitation  
Precipitation 0.00 in - - ()
Sea Level Pressure  
Sea Level Pressure 29.97 in    
Wind  
Wind Speed 9 mph (NW)    
Max Wind Speed 16 mph    
Max Gust Speed 23 mph    
Visibility 10 miles    
Events      
Averages and records for this station are not official NWS values.
T = Trace of Precipitation, MM = Missing Value Source: NWS Daily Summary

Daily Weather History Graph

Daily Weather History Graph

Search for Another Location

Airport:

Trip Planner

Search our weather history database for the weather conditions in past years. The results will help you decide how hot, cold, wet, or windy it might be!

Date:

Astronomy

Apr. 11, 2012 Rise Set
Actual Time 6:51 AM EDT 7:45 PM EDT
Civil Twilight 6:26 AM EDT 8:10 PM EDT
Nautical Twilight 5:56 AM EDT 8:40 PM EDT
Astronomical Twilight 5:25 AM EDT 9:11 PM EDT
Moon 12:27 AM EDT (4/11) 10:49 AM EDT (4/11)
Length of Visible Light 13h 44m
Length of Day
12h 53m
Waning Gibbous, 69% of the Moon is Illuminated
Apr 11
Waning Gibbous
Apr 13
Last Quarter
Apr 21
New
Apr 29
First Quarter
May 5
Full

Hourly Weather History & Observations

Time (EDT) Temp. Windchill Dew Point Humidity Pressure Visibility Wind Dir Wind Speed Gust Speed Precip Events Conditions
12:15 AM 62.6 °F - 46.4 °F 55% 29.89 in 10.0 mi SW 9.2 mph - N/A   Clear
12:35 AM 60.8 °F - 46.4 °F 59% 29.90 in 10.0 mi SW 9.2 mph - N/A   Clear
12:55 AM 60.8 °F - 46.4 °F 59% 29.89 in 10.0 mi SW 8.1 mph - N/A   Clear
1:15 AM 60.8 °F - 46.4 °F 59% 29.89 in 10.0 mi SW 8.1 mph - N/A   Clear
1:35 AM 60.8 °F - 46.4 °F 59% 29.88 in 10.0 mi WSW 8.1 mph - N/A   Clear
1:55 AM 60.8 °F - 46.4 °F 59% 29.88 in 10.0 mi SW 8.1 mph - N/A   Scattered Clouds
2:15 AM 60.8 °F - 46.4 °F 59% 29.88 in 10.0 mi WSW 6.9 mph - N/A   Clear
2:55 AM 62.6 °F - 44.6 °F 52% 29.88 in 10.0 mi WSW 8.1 mph - N/A   Clear
4:35 AM 59.0 °F - 44.6 °F 59% 29.90 in 10.0 mi West 6.9 mph - N/A   Scattered Clouds
4:55 AM 59.0 °F - 44.6 °F 59% 29.90 in 10.0 mi West 5.8 mph - N/A   Scattered Clouds
5:15 AM 59.0 °F - 42.8 °F 55% 29.91 in 10.0 mi West 5.8 mph - N/A   Scattered Clouds
5:35 AM 59.0 °F - 42.8 °F 55% 29.91 in 10.0 mi WNW 4.6 mph - N/A   Scattered Clouds
6:15 AM 59.0 °F - 41.0 °F 51% 29.93 in 10.0 mi NW 5.8 mph - N/A   Scattered Clouds
6:35 AM 55.4 °F - 41.0 °F 58% 29.94 in 10.0 mi WNW 4.6 mph - N/A   Clear
6:55 AM 55.4 °F - 39.2 °F 54% 29.95 in 10.0 mi NW 6.9 mph - N/A   Clear
7:35 AM 53.6 °F - 37.4 °F 54% 29.96 in 10.0 mi NNW 5.8 mph - N/A   Clear
8:35 AM 57.2 °F - 32.0 °F 38% 29.99 in 10.0 mi North 10.4 mph 16.1 mph N/A   Clear
8:55 AM 59.0 °F - 30.2 °F 34% 30.00 in 10.0 mi North 8.1 mph 17.3 mph N/A   Clear
9:15 AM 59.0 °F - 28.4 °F 31% 30.00 in 10.0 mi North 15.0 mph 18.4 mph N/A   Clear
9:55 AM 60.8 °F - 28.4 °F 29% 30.01 in 10.0 mi North 9.2 mph 16.1 mph N/A   Clear
10:15 AM 60.8 °F - 24.8 °F 25% 30.01 in 10.0 mi North 15.0 mph 18.4 mph N/A   Clear
10:35 AM 60.8 °F - 24.8 °F 25% 30.01 in 10.0 mi NNW 9.2 mph 18.4 mph N/A   Clear
10:55 AM 60.8 °F - 26.6 °F 27% 30.01 in 10.0 mi NNW 11.5 mph 17.3 mph N/A   Clear
11:15 AM 60.8 °F - 24.8 °F 25% 30.02 in 10.0 mi NNW 11.5 mph - N/A   Clear
11:35 AM 62.6 °F - 26.6 °F 26% 30.01 in 10.0 mi NNW 12.7 mph 17.3 mph N/A   Clear
11:55 AM 62.6 °F - 26.6 °F 26% 30.01 in 10.0 mi North 11.5 mph - N/A   Clear
12:35 PM 62.6 °F - 26.6 °F 26% 30.00 in 10.0 mi NW 9.2 mph - N/A   Clear
1:55 PM 66.2 °F - 26.6 °F 23% 29.98 in 10.0 mi WNW 8.1 mph 17.3 mph N/A   Clear
2:15 PM 66.2 °F - 26.6 °F 23% 29.98 in 10.0 mi WNW 10.4 mph 17.3 mph N/A   Clear
3:35 PM 68.0 °F - 21.2 °F 17% 29.97 in 10.0 mi NW 11.5 mph 19.6 mph N/A   Clear
3:55 PM 66.2 °F - 21.2 °F 18% 29.97 in 10.0 mi NW 10.4 mph 18.4 mph N/A   Clear
4:15 PM 68.0 °F - 23.0 °F 18% 29.97 in 10.0 mi WNW 12.7 mph 23.0 mph N/A   Clear
4:55 PM 68.0 °F - 21.2 °F 17% 29.96 in 10.0 mi NW 11.5 mph 21.9 mph N/A   Clear
5:15 PM 68.0 °F - 23.0 °F 18% 29.96 in 10.0 mi WNW 16.1 mph 21.9 mph N/A   Clear
5:35 PM 68.0 °F - 19.4 °F 16% 29.97 in 10.0 mi NW 11.5 mph 18.4 mph N/A   Clear
6:15 PM 64.4 °F - 19.4 °F 18% 29.98 in 10.0 mi NW 9.2 mph 18.4 mph N/A   Clear
6:55 PM 62.6 °F - 23.0 °F 22% 29.99 in 10.0 mi NNW 9.2 mph - N/A   Clear
7:15 PM 62.6 °F - 21.2 °F 20% 30.00 in 10.0 mi NNW 9.2 mph - N/A   Clear
7:35 PM 60.8 °F - 23.0 °F 23% 30.00 in 10.0 mi NNW 5.8 mph - N/A   Clear
7:55 PM 59.0 °F - 24.8 °F 27% 30.01 in 10.0 mi NNW 3.5 mph - N/A   Clear
8:35 PM 57.2 °F - 26.6 °F 31% 30.02 in 10.0 mi NW 3.5 mph - N/A   Clear
8:55 PM 51.8 °F - 32.0 °F 47% 30.03 in 10.0 mi Calm Calm - N/A   Clear
9:35 PM 51.8 °F - 32.0 °F 47% 30.05 in 10.0 mi NNE 3.5 mph - N/A   Clear
10:35 PM 46.4 °F 44.3 °F 33.8 °F 62% 30.08 in 10.0 mi North 4.6 mph - N/A   Clear
10:55 PM 51.8 °F - 32.0 °F 47% 30.09 in 10.0 mi NNE 13.8 mph 20.7 mph N/A   Clear
11:35 PM 51.8 °F - 28.4 °F 41% 30.11 in 10.0 mi NNE 16.1 mph 23.0 mph N/A   Clear
11:55 PM 51.8 °F - 28.4 °F 41% 30.12 in 10.0 mi NNE 11.5 mph 16.1 mph N/A   Clear